Wind_Speed
18 21 15 12 6 11 14 9 6 7 5 5 4 6 6 6 8 8 8 9 9 12 14 15 15 15 16 16 13 12 13 13 15
18 19 9 12 10 9 12 7 7 7 5 6 4 6 7 8 8 9 10 11 12 11 10 11 12 14 14 14 12 12 13 12 12
21 23 13 12 14 10 9 6 8 8 6 6 5 8 7 4 4 4 5 8 10 11 11 11 13 11 11 11 11 12 13 12 10
32 16 12 10 14 14 5 6 8 8 7 5 5 8 8 4 3 3 3 3 5 8 9 10 11 12 12 12 11 11 10 9 11
36 19 16 14 13 14 9 6 6 9 8 5 5 8 7 5 4 2 2 3 4 1 1 3 5 7 7 7 8 7 7 6 5
34 24 21 22 22 39 27 17 5 5 6 7 7 7 7 4 4 4 2 2 2 3 3 2 2 3 1 1 3 5 5 5 7
37 27 27 29 32 36 20 13 12 9 9 9 9 10 9 5 4 5 3 2 4 4 4 5 5 4 4 4 6 7 8 7 7
27 25 29 33 34 35 34 21 12 8 11 11 11 12 12 10 6 4 5 4 5 5 6 5 6 7 6 6 6 8 9 11 13
35 34 31 34 36 34 32 30 23 17 19 19 18 16 18 16 11 10 9 10 11 10 9 9 8 9 11 11 11 12 12 13 14
35 30 35 35 39 36 26 30 29 28 30 26 24 25 25 24 21 15 15 15 14 14 13 14 13 12 13 13 14 15 16 16 17
29 46 35 37 42 42 41 34 38 36 36 33 31 30 22 13 16 19 17 18 20 18 19 18 17 17 16 16 17 18 18 18 16
31 54 59 42 43 45 44 43 44 41 41 40 37 36 28 26 27 20 25 22 24 24 23 24 24 22 22 22 20 20 21 21 20
58 41 28 34 38 43 48 49 46 48 48 46 42 39 36 32 31 27 27 30 29 29 28 28 29 29 27 27 26 24 22 22 21
50 43 39 41 38 39 44 49 52 50 48 51 48 44 41 39 35 33 32 34 36 35 34 33 33 33 35 35 33 30 29 26 25
50 48 44 42 39 37 40 43 50 52 52 50 51 50 47 43 42 41 39 37 35 41 38 40 42 39 40 39 39 36 35 30 30
44 43 40 38 35 36 37 40 44 47 53 53 53 51 51 49 49 46 41 35 35 39 39 36 43 48 45 42 43 37 38 34 32
46 44 40 40 37 34 35 39 40 45 47 53 56 54 53 51 52 51 47 42 39 41 37 43 44 46 47 49 57 33 32 32 32
46 44 42 42 40 38 35 37 40 41 47 50 55 57 57 56 56 54 49 45 43 42 41 40 39 44 50 56 62 33 29 24 28
47 46 44 43 44 42 38 36 39 42 45 49 53 55 60 60 60 57 54 48 46 45 43 43 45 48 52 50 44 39 24 13 22
46 48 43 45 44 43 41 39 38 41 45 50 52 57 64 63 61 62 53 50 48 48 46 45 49 49 46 55 38 29 16 17 22
Wind_Direction
255 295 267 283 270 334 339 305 287 302 302 281 310 322 315 293 271 266 257 253 246 244 244 240 245 251 256 260 263 265 268 268 277
255 257 294 289 278 324 331 306 283 285 310 277 299 323 324 306 275 257 252 252 251 244 244 244 242 258 256 254 256 258 264 269 274
256 262 242 275 286 293 315 290 276 269 279 282 310 327 332 325 332 329 288 260 250 246 244 249 260 259 263 267 261 262 273 278 252
243 262 246 266 298 309 289 270 268 254 250 271 299 323 327 320 325 334 332 308 254 243 250 263 272 276 272 269 263 259 270 279 276
270 263 234 258 273 278 261 277 270 247 252 268 289 310 319 306 307 280 316 316 284 260 248 284 296 295 286 267 250 247 252 263 274
271 254 230 242 237 206 202 185 255 288 266 282 278 284 296 313 314 315 318 309 296 288 280 273 338 324 314 243 220 215 223 250 275
270 260 232 236 248 268 241 195 180 196 267 275 287 277 271 268 284 318 327 263 268 290 291 292 292 278 267 257 259 267 266 272 297
269 256 246 239 246 255 266 245 268 223 228 260 265 283 274 263 260 269 286 252 241 244 250 263 285 293 296 282 277 288 279 277 292
260 255 248 250 252 255 257 255 261 258 235 252 266 281 278 273 260 263 262 269 267 268 270 275 274 268 273 279 289 289 291 298 305
265 260 248 247 244 245 241 251 254 250 251 251 249 261 267 272 280 265 267 271 272 273 274 278 275 269 269 269 276 287 292 300 302
241 264 256 260 247 244 244 240 243 244 247 248 253 248 266 278 274 279 275 272 268 269 273 272 271 274 268 269 277 280 285 291 296
251 256 258 255 252 245 244 246 244 244 245 249 250 253 250 255 260 260 271 275 272 265 266 271 271 268 269 272 269 275 283 288 291
254 276 256 272 258 246 244 244 246 246 246 247 250 251 251 250 258 251 261 264 263 264 264 262 268 269 267 265 268 272 276 286 286
268 277 277 271 261 250 245 243 244 247 247 248 248 249 251 254 254 255 257 263 262 257 261 261 262 263 268 271 272 270 274 278 281
267 273 274 272 268 258 248 243 242 242 245 245 247 248 249 252 257 252 248 255 260 258 257 268 265 260 266 267 269 269 269 269 277
262 262 265 266 265 262 256 249 242 239 241 243 244 245 249 249 253 257 251 249 256 261 261 282 276 274 273 271 258 257 262 266 271
260 261 263 266 265 263 257 253 248 239 239 240 240 241 245 245 249 250 252 250 259 262 265 267 255 260 266 271 266 237 246 254 264
262 260 261 265 266 263 260 250 246 245 238 237 239 238 240 244 245 245 246 252 255 259 263 268 261 257 264 284 262 238 234 237 257
262 261 261 263 262 261 259 256 247 240 240 236 234 237 239 238 243 247 249 249 251 258 259 259 268 272 272 281 289 241 222 248 256
258 258 259 260 261 260 257 254 249 245 239 239 234 233 235 237 240 243 246 248 251 253 258 261 268 266 278 281 273 245 242 244 261
Height
5926 5921 5911 5912 5920 5920 5919 5919 5920 5920 5921 5921 5921 5920 5920 5920 5920 5920 5921 5922 5923 5924 5925 5926 5927 5927 5928 5929 5931 5931 5931 5931 5931
5922 5918 5901 5910 5917 5919 5918 5918 5919 5919 5920 5920 5920 5919 5919 5918 5918 5919 5919 5920 5921 5922 5922 5923 5925 5924 5925 5926 5927 5928 5928 5929 5928
5916 5914 5917 5917 5916 5916 5916 5916 5917 5918 5918 5918 5919 5918 5917 5917 5916 5916 5917 5917 5918 5919 5920 5921 5921 5923 5924 5923 5924 5924 5925 5925 5925
5908 5914 5915 5916 5915 5913 5913 5914 5915 5915 5916 5916 5917 5917 5917 5916 5916 5916 5916 5917 5918 5918 5918 5919 5919 5919 5920 5920 5921 5921 5922 5922 5922
5904 5912 5912 5913 5911 5910 5909 5910 5912 5913 5914 5915 5915 5916 5917 5916 5916 5915 5915 5917 5917 5918 5918 5918 5918 5917 5917 5918 5918 5919 5920 5920 5920
5901 5905 5907 5904 5897 5867 5888 5898 5909 5912 5913 5913 5914 5914 5915 5915 5915 5915 5914 5915 5917 5918 5918 5918 5918 5918 5918 5918 5919 5919 5919 5918 5918
5895 5901 5901 5897 5894 5885 5881 5898 5901 5906 5912 5913 5912 5913 5914 5915 5915 5915 5915 5915 5916 5917 5917 5918 5919 5919 5919 5919 5919 5919 5919 5918 5917
5886 5893 5896 5893 5889 5891 5895 5903 5904 5902 5907 5911 5911 5911 5912 5914 5914 5914 5915 5916 5917 5917 5917 5917 5918 5919 5919 5919 5919 5918 5918 5917 5916
5876 5883 5891 5891 5885 5884 5889 5895 5900 5901 5902 5906 5908 5909 5910 5911 5912 5912 5913 5914 5915 5916 5916 5916 5916 5917 5917 5917 5917 5917 5916 5915 5914
5865 5871 5881 5885 5883 5883 5887 5888 5890 5895 5897 5898 5902 5905 5907 5909 5910 5910 5910 5911 5911 5912 5914 5914 5914 5914 5914 5914 5914 5914 5914 5913 5912
5856 5860 5868 5875 5876 5877 5879 5883 5885 5888 5892 5894 5896 5899 5903 5905 5906 5906 5906 5908 5908 5908 5909 5910 5911 5911 5910 5910 5910 5910 5910 5909 5909
5849 5846 5852 5859 5868 5869 5870 5871 5873 5878 5881 5885 5889 5892 5897 5899 5900 5900 5901 5902 5904 5904 5905 5906 5906 5907 5907 5906 5905 5904 5905 5905 5904
5842 5835 5848 5851 5852 5855 5857 5860 5863 5865 5870 5874 5879 5883 5888 5891 5892 5894 5895 5895 5896 5898 5899 5899 5900 5900 5900 5900 5901 5900 5900 5900 5900
5828 5833 5834 5837 5840 5843 5845 5848 5851 5855 5859 5863 5868 5872 5876 5880 5884 5886 5888 5887 5888 5889 5890 5892 5893 5894 5894 5894 5894 5895 5893 5893 5893
5824 5826 5825 5825 5827 5830 5832 5835 5838 5844 5847 5852 5857 5862 5866 5869 5872 5875 5879 5880 5880 5880 5880 5882 5884 5884 5886 5888 5886 5886 5887 5888 5886
5815 5815 5815 5815 5815 5817 5819 5822 5825 5831 5835 5840 5844 5850 5854 5858 5861 5864 5868 5868 5870 5872 5868 5873 5877 5878 5880 5880 5876 5876 5877 5879 5879
5801 5802 5803 5803 5804 5805 5807 5809 5813 5817 5821 5826 5831 5837 5842 5846 5849 5852 5853 5855 5861 5863 5853 5865 5866 5866 5867 5867 5861 5857 5863 5867 5870
5786 5787 5789 5790 5792 5794 5796 5797 5800 5804 5808 5811 5817 5823 5829 5833 5836 5835 5842 5847 5852 5853 5856 5856 5857 5856 5856 5850 5844 5849 5844 5850 5858
5772 5775 5776 5778 5779 5781 5784 5786 5788 5790 5793 5797 5803 5808 5814 5817 5819 5827 5829 5837 5841 5843 5847 5849 5850 5846 5841 5836 5836 5839 5832 5835 5846
5759 5759 5764 5765 5766 5768 5771 5774 5776 5778 5781 5784 5789 5793 5795 5802 5808 5813 5819 5827 5831 5832 5836 5837 5835 5835 5834 5831 5827 5828 5828 5830 5838